Regional Weather Roundup
Issued by NWS Cleveland, OH

Home | Current Version | Previous Version | Graphics & Text | Print | Product List | Glossary On
Versions: 1 2 3 4 5 6 7 8 9 10 11 12 13 14 15 16 17 18 19 20 21 22 23 24 25 26 27 28 29 30 31 32 33 34 35 36 37 38 39 40 41 42 43 44 45 46 47 48 49 50
000
ASUS41 KCLE 260302
RWRCLE
OHIO REGIONAL WEATHER ROUNDUP
NATIONAL WEATHER SERVICE CLEVELAND, OH
1100 PM EDT SAT APR 25 2015

NOTE: "FAIR" INDICATES FEW OR NO CLOUDS BELOW 12,000 FEET WITH NO
SIGNIFICANT WEATHER AND/OR OBSTRUCTIONS TO VISIBILITY.

OHZ001>008-015>018-024>027-034-035-043-044-260400-
   NORTHWEST OHIO

CITY           SKY/WX    TMP DP  RH WIND       PRES   REMARKS
DEFIANCE       CLOUDY    43  31  62 N6        29.79S
FINDLAY        CLOUDY    42  27  55 NE8       29.76R
TOLEDO EXPRESS CLOUDY    44  28  53 NE10      29.78S
TOLEDO EXEC    CLOUDY    45  31  58 NE12G20   29.79S
LIMA           CLOUDY    40  31  70 N6        29.76R
$$

OHZ009>014-019>023-028>033-038-089-260400-
   NORTHEAST OHIO

CITY           SKY/WX    TMP DP  RH WIND       PRES   REMARKS
CLE-HOPKINS    CLOUDY    43  27  53 NE13      29.77S
CLE-LAKEFRONT  MOCLDY    44  30  57 N21       29.75S
CUY CO. ARPT   NOT AVBL
LORAIN-ELYRIA  CLOUDY    41  31  67 NE13      29.75S
ASHTABULA      MOCLDY    42  24  49 NE7       29.76F
AKRON-CANTON   CLOUDY    44  24  45 NE10      29.71S
WOOSTER        CLOUDY    42  27  55 NE9       29.72R
MANSFIELD      CLOUDY    41  26  55 N10       29.71S
YOUNGSTOWN     CLOUDY    41  25  53 NE12      29.72F
$$

OHZ042-051>053-060>062-070>072-077>081-260400-
  SOUTHWEST OHIO

CITY           SKY/WX    TMP DP  RH WIND       PRES   REMARKS
CINC-COVINGTON CLOUDY    45  42  89 NE17G29   29.64R
CINC-LUNKEN    CLOUDY    46  41  82 NE13      29.67R
HAMILTON       CLOUDY    46  40  79 NE13      29.69S
DAYTON         CLOUDY    44  39  82 NE16      29.72R
WRIGHT-PAT AFB CLOUDY    45  41  87 NE14      29.70R
DAYTON GENERAL CLOUDY    44  40  85 NE15      29.68R
WILMINGTON     CLOUDY    43  39  86 NE14      29.68R
$$

OHZ036-037-039>041-045>050-054>059-063>069-073>076-082>088-260400-
  CENTRAL AND SOUTHEAST OHIO

CITY           SKY/WX    TMP DP  RH WIND       PRES   REMARKS
COLUMBUS       CLOUDY    43  40  89 N7        29.70R
OSU AIRPORT    CLOUDY    43  39  86 NE7       29.71R
BOLTON FIELD   NOT AVBL
RICKENBACK AFB CLOUDY    43  40  89 NE8       29.70S
NEWARK         CLOUDY    43  39  86 N5        29.69S
MARION         CLOUDY    40  32  73 N9        29.74R
LANCASTER      CLOUDY    44  40  85 NE7       29.70R
ZANESVILLE     CLOUDY    42  39  89 NE5       29.68F
NEW PHILLY     CLOUDY    46  39  76 CALM      29.70F
$$


USA.gov is the U.S. government's official web portal to all federal, state and local government web resources and services.